TimeEDT,TemperatureF,Dew PointF,Humidity,Sea Level PressureIn,VisibilityMPH,Wind Direction,Wind SpeedMPH,Gust SpeedMPH,PrecipitationIn,Events,Conditions,WindDirDegrees,DateUTC
12:53 AM,66.0,61.0,84,30.14,10.0,Calm,Calm,-,N/A,,Clear,0,2012-09-28 04:53:00
1:53 AM,66.0,63.0,90,30.13,10.0,Calm,Calm,-,N/A,,Clear,0,2012-09-28 05:53:00
2:53 AM,66.0,62.1,87,30.12,10.0,Calm,Calm,-,N/A,,Clear,0,2012-09-28 06:53:00
3:53 AM,64.9,62.1,90,30.12,10.0,North,3.5,-,N/A,,Clear,350,2012-09-28 07:53:00
4:53 AM,64.0,61.0,90,30.11,10.0,Calm,Calm,-,N/A,,Clear,0,2012-09-28 08:53:00
5:53 AM,64.0,61.0,90,30.11,10.0,Calm,Calm,-,N/A,,Clear,0,2012-09-28 09:53:00
6:53 AM,63.0,59.0,87,30.12,10.0,Calm,Calm,-,N/A,,Clear,0,2012-09-28 10:53:00
7:53 AM,64.0,61.0,90,30.12,10.0,Calm,Calm,-,N/A,,Clear,0,2012-09-28 11:53:00
8:53 AM,64.9,62.1,90,30.14,10.0,NW,3.5,-,N/A,,Clear,320,2012-09-28 12:53:00
9:53 AM,70.0,63.0,78,30.14,10.0,West,3.5,-,N/A,,Clear,260,2012-09-28 13:53:00
10:53 AM,75.9,62.1,62,30.13,10.0,West,6.9,-,N/A,,Clear,260,2012-09-28 14:53:00
11:53 AM,79.0,63.0,58,30.13,10.0,West,6.9,-,N/A,,Clear,260,2012-09-28 15:53:00
12:53 PM,79.0,64.0,60,30.11,10.0,West,6.9,-,N/A,,Clear,260,2012-09-28 16:53:00
1:53 PM,81.0,64.0,56,30.09,10.0,West,8.1,-,N/A,,Clear,280,2012-09-28 17:53:00
2:53 PM,81.0,63.0,54,30.06,10.0,WSW,6.9,-,N/A,,Clear,250,2012-09-28 18:53:00
3:53 PM,81.0,62.1,52,30.04,10.0,West,6.9,-,N/A,,Partly Cloudy,260,2012-09-28 19:53:00
4:53 PM,82.0,60.1,47,30.02,10.0,WNW,5.8,-,N/A,,Partly Cloudy,290,2012-09-28 20:53:00
5:53 PM,81.0,60.1,49,30.01,10.0,West,4.6,-,N/A,,Clear,280,2012-09-28 21:53:00
6:53 PM,79.0,59.0,50,30.01,10.0,WNW,4.6,-,N/A,,Clear,290,2012-09-28 22:53:00
7:53 PM,73.9,61.0,64,30.03,10.0,Calm,Calm,-,N/A,,Clear,0,2012-09-28 23:53:00
8:53 PM,73.9,60.1,62,30.04,10.0,Calm,Calm,-,N/A,,Clear,0,2012-09-29 00:53:00
9:53 PM,71.1,60.1,68,30.04,10.0,Calm,Calm,-,N/A,,Clear,0,2012-09-29 01:53:00
10:53 PM,70.0,60.1,71,30.04,10.0,SSW,4.6,-,N/A,,Clear,210,2012-09-29 02:53:00
11:53 PM,70.0,62.1,76,30.03,10.0,SW,5.8,-,N/A,,Clear,230,2012-09-29 03:53:00